Home   Weather   Macon   Past weeks
Flag for USA

Past Weather in Macon, Georgia, USA — Yesterday and Last 2 Weeks

Now
75 °F

Scattered clouds.


Feels Like: 77 °F
Forecast: 85 / 64 °F
Wind: 15 mph from West

Location: Middle Georgia Regional Airport

Current Time: Mar 28, 2020 at 11:54:08 am

Latest Report: Mar 28, 2020 at 10:53 am


Visibility: 10 mi

Pressure: 30.03 "Hg

Humidity: 71%

Dew Point: 65 °F

Location of MaconLocation

Past Weather in Macon — Graph

°F

Macon Temperature Yesterday

Maximum temperature yesterday: 83 °F (at 4:53 pm)
Minimum temperature yesterday: 59 °F (at 6:15 am)
Average temperature yesterday: 69 °F

High & Low Weather Summary for the Past Weeks

 TemperatureHumidityPressure
High86 °F (Mar 19, 3:53 pm)100% (Mar 14, 5:53 am)30.34 "Hg (Mar 14, 5:53 am)
Low51 °F (Mar 26, 5:53 am)26% (Mar 25, 5:53 pm)29.78 "Hg (Mar 25, 2:53 am)
Average67 °F77%30.14 "Hg
* Reported Mar 13 10:06 am — Mar 28 10:25 am, Macon. Weather by CustomWeather, © 2020

Note: Actual official high and low records may vary slightly from our data, if they occured in-between our weather recording intervals... More about our weather records

Macon Weather History for the Previous 24 Hours

Scroll right to see more
 ConditionsComfort  
Time TempWeatherWind HumidityBarometerVisibility
10:25 am
Sat, Mar 28
75 °FMostly cloudy.10 mph74%30.04 "Hg10 mi
10:14 am73 °FPartly sunny.9 mph76%30.04 "Hg10 mi
10:00 am73 °FScattered clouds.8 mph79%30.03 "Hg10 mi
9:02 am69 °FPartly sunny.3 mph87%30.02 "Hg9 mi
8:36 am68 °FScattered clouds.6 mph90%30.01 "Hg10 mi
7:53 am67 °FMore clouds than sun.5 mph90%29.99 "Hg9 mi
6:53 am67 °FPassing clouds.8 mph90%29.98 "Hg9 mi
5:53 am67 °FClear.9 mph90%29.96 "Hg10 mi
4:53 am67 °FClear.5 mph85%29.96 "Hg10 mi
3:53 am68 °FClear.5 mph82%29.97 "Hg10 mi
2:53 am69 °FClear.8 mph81%29.97 "Hg10 mi
1:53 am69 °FClear.7 mph81%29.97 "Hg10 mi
12:53 am68 °FClear.8 mph84%29.97 "Hg8 mi
11:53 pm
Fri, Mar 27
66 °FFog.3 mph93%29.96 "Hg6 mi
10:53 pm67 °FClear.No wind87%29.96 "Hg8 mi
9:53 pm70 °FClear.No wind81%29.96 "Hg9 mi
8:53 pm71 °FClear.No wind78%29.94 "Hg9 mi
7:53 pm75 °FClear.5 mph66%29.93 "Hg10 mi
6:53 pm80 °FSunny.9 mph58%29.92 "Hg8 mi
5:53 pm82 °FSunny.9 mph55%29.91 "Hg10 mi
4:53 pm83 °FSunny.9 mph53%29.92 "Hg10 mi
3:53 pm82 °FSunny.10 mph56%29.93 "Hg10 mi
2:53 pm82 °FSunny.13 mph55%29.96 "Hg10 mi
1:53 pm78 °FScattered clouds.9 mph62%29.99 "Hg10 mi
1:40 pm78 °FScattered clouds.9 mph62%30.01 "Hg10 mi
1:03 pm77 °FPartly sunny.5 mph64%30.02 "Hg10 mi
12:53 pm77 °FScattered clouds.9 mph64%30.01 "Hg10 mi
11:53 am73 °FOvercast.6 mph74%30.02 "Hg10 mi
11:17 am70 °FOvercast.7 mph81%30.03 "Hg10 mi
Weather by CustomWeather, © 2020

See weather overview

Advertising